This is the latest recevied weather packets stored in our database for station/object WX5KDM. If no packets are shown the sender has not sent any weather packets the latest 10 day(s).
| Time | Temp. | Humidity | Pressure | Rain* | Wind** | Luminosity | Snow |
|---|---|---|---|---|---|---|---|
| 1778248299 | 16.67° C | 72% | 1018.6 hPa | 0 mm | - | - | - |
| 1778247996 | 16.67° C | 71% | 1018.5 hPa | 0 mm | - | - | - |
| 1778247693 | 15.56° C | 77% | 1018.6 hPa | 0 mm | - | - | - |
| 1778247390 | 15.56° C | 75% | 1018.6 hPa | 0 mm | - | - | - |
| 1778247087 | 15.56° C | 77% | 1018.4 hPa | 0 mm | - | - | - |
| 1778246785 | 15° C | 77% | 1018.4 hPa | 0 mm | - | - | - |
| 1778246482 | 15.56° C | 75% | 1018.5 hPa | 0 mm | - | - | - |
| 1778246177 | 15° C | 75% | 1018.6 hPa | 0 mm | - | - | - |
| 1778245875 | 15° C | 77% | 1018.6 hPa | 0 mm | - | - | - |
| 1778245571 | 14.44° C | 77% | 1018.7 hPa | 0 mm | - | - | - |
| 1778245268 | 14.44° C | 79% | 1018.6 hPa | 0 mm | - | - | - |
| 1778244963 | 13.89° C | 79% | 1018.6 hPa | 0 mm | - | - | - |
| 1778244661 | 14.44° C | 81% | 1018.6 hPa | 0 mm | - | - | - |
| 1778244359 | 14.44° C | 79% | 1018.4 hPa | 0 mm | - | - | - |
| 1778244055 | 13.89° C | 79% | 1018.5 hPa | 0 mm | - | - | - |
| 1778243754 | 13.89° C | 82% | 1018.2 hPa | 0 mm | - | - | - |
| 1778243451 | 13.89° C | 81% | 1018.4 hPa | 0 mm | - | - | - |
| 1778243147 | 13.33° C | 82% | 1018.4 hPa | 0 mm | - | - | - |
| 1778242844 | 12.78° C | 85% | 1018.3 hPa | 0 mm | - | - | - |
| 1778242543 | 12.22° C | 90% | 1018.3 hPa | 0 mm | - | - | - |
| 1778242240 | 12.22° C | 94% | 1018.3 hPa | 0 mm | - | - | - |
| 1778241937 | 12.22° C | 96% | 1018.2 hPa | 0 mm | - | - | - |
| 1778241636 | 11.67° C | 96% | 1018.2 hPa | 0 mm | - | - | - |
| 1778241333 | 11.11° C | 98% | 1017.9 hPa | 0 mm | - | - | - |
| 1778241029 | 11.11° C | 98% | 1017.9 hPa | 0 mm | - | - | - |
* Rain latest hour (hover to see other rain measurements)
** Current wind speed in m/s (hover to see current wind gust speed)